Weather History for Nashua, NH

Change the Weather History Date:

Friday, October 5, 2012

  Actual Average Record
Temperature  
Mean Temperature 66 °F -  
Max Temperature 77 °F 63 °F 86 °F (2007)
Min Temperature 55 °F 40 °F 21 °F (1996)
Cooling Degree Days 1    
Growing Degree Days 16 (Base 50)    
Moisture  
Dew Point 57 °F    
Average Humidity 91    
Maximum Humidity 100    
Minimum Humidity 42    
Precipitation  
Precipitation 0.00 in - - ()
Sea Level Pressure  
Sea Level Pressure 30.01 in    
Wind  
Wind Speed 1 mph (NW)    
Max Wind Speed 6 mph    
Max Gust Speed -    
Visibility 4 miles    
Events Fog    
Averages and records for this station are not official NWS values.
T = Trace of Precipitation, MM = Missing Value Source: NWS Daily Summary

Daily Weather History Graph

Daily Weather History Graph

Search for Another Location

Airport:

Trip Planner

Search our weather history database for the weather conditions in past years. The results will help you decide how hot, cold, wet, or windy it might be!

Date:

Astronomy

Oct. 05, 2012 Rise Set
Actual Time 6:48 AM EDT 6:19 PM EDT
Civil Twilight 6:20 AM EDT 6:47 PM EDT
Nautical Twilight 5:47 AM EDT 7:20 PM EDT
Astronomical Twilight 5:14 AM EDT 7:53 PM EDT
Moon 9:34 PM EDT (10/5) 12:00 PM EDT (10/5)
Length of Visible Light 12h 27m
Length of Day
11h 31m
Waning Gibbous, 74% of the Moon is Illuminated
Oct 5
Waning Gibbous
Oct 8
Last Quarter
Oct 15
New
Oct 21
First Quarter
Oct 29
Full

Hourly Weather History & Observations

Time (EDT) Temp. Dew Point Humidity Pressure Visibility Wind Dir Wind Speed Gust Speed Precip Events Conditions
12:01 AM 60.8 °F 60.8 °F 100% 30.04 in 1.0 mi Calm Calm - N/A   Mist
12:51 AM 61.0 °F 59.9 °F 96% 30.04 in 1.0 mi Calm Calm - N/A   Mostly Cloudy
12:59 AM 60.8 °F 60.8 °F 100% 30.04 in 0.8 mi Calm Calm - N/A   Mostly Cloudy
1:07 AM 60.8 °F 60.8 °F 100% 30.04 in 0.5 mi Calm Calm - N/A Fog Fog
1:43 AM 60.8 °F 59.0 °F 94% 30.03 in 0.8 mi Calm Calm - N/A   Overcast
1:51 AM 59.9 °F 59.0 °F 97% 30.04 in 0.5 mi Calm Calm - N/A Fog Fog
2:02 AM 60.8 °F 59.0 °F 94% 30.03 in 0.2 mi Calm Calm - N/A Fog Fog
2:51 AM 59.9 °F 59.0 °F 97% 30.02 in 0.2 mi NW 3.5 mph - N/A Fog Fog
3:07 AM 60.8 °F 59.0 °F 94% 30.02 in 0.2 mi West 3.5 mph - N/A Fog Fog
4:11 AM 57.2 °F 57.2 °F 100% 30.02 in 0.8 mi Calm Calm - N/A   Mostly Cloudy
4:26 AM 57.2 °F 57.2 °F 100% 30.01 in 0.5 mi Calm Calm - N/A Fog Fog
4:51 AM 57.9 °F 56.8 °F 96% 30.02 in 0.5 mi Calm Calm - N/A Fog Fog
5:10 AM 57.2 °F 57.2 °F 100% 30.02 in 0.2 mi Calm Calm - N/A Fog Fog
5:20 AM 57.2 °F 57.2 °F 100% 30.02 in 0.5 mi Calm Calm - N/A Fog Fog
5:30 AM 57.2 °F 57.2 °F 100% 30.02 in 0.2 mi Calm Calm - N/A Fog Fog
5:51 AM 56.8 °F 55.9 °F 97% 30.03 in 0.5 mi Calm Calm - N/A Fog Fog
6:02 AM 57.2 °F 55.4 °F 94% 30.02 in 0.2 mi Calm Calm - N/A Fog Fog
6:23 AM 57.2 °F 55.4 °F 94% 30.02 in 0.5 mi Calm Calm - N/A Fog Fog
6:41 AM 57.2 °F 55.4 °F 94% 30.02 in 0.2 mi Calm Calm - N/A Fog Fog
6:51 AM 56.8 °F 55.9 °F 97% 30.04 in 0.2 mi Calm Calm - N/A Fog Fog
7:51 AM 55.9 °F 55.9 °F 100% 30.04 in 0.2 mi Calm Calm - N/A Fog Fog
8:34 AM 57.2 °F 55.4 °F 94% 30.02 in 0.2 mi Calm Calm - N/A Fog Fog
8:51 AM 56.8 °F 56.8 °F 100% 30.04 in 0.8 mi Calm Calm - N/A   Mostly Cloudy
8:56 AM 57.2 °F 57.2 °F 100% 30.03 in 1.2 mi Calm Calm - N/A   Mostly Cloudy
8:59 AM 57.2 °F 57.2 °F 100% 30.03 in 2.5 mi Calm Calm - N/A   Mostly Cloudy
9:07 AM 57.2 °F 57.2 °F 100% 30.03 in 5.0 mi Calm Calm - N/A   Mostly Cloudy
9:16 AM 57.2 °F 57.2 °F 100% 30.03 in 2.5 mi NW 3.5 mph - N/A   Scattered Clouds
9:28 AM 59.0 °F 57.2 °F 94% 30.03 in 4.0 mi North 3.5 mph - N/A   Partly Cloudy
9:51 AM 61.0 °F 59.9 °F 96% 30.03 in 7.0 mi Calm Calm - N/A   Clear
11:51 AM 70.9 °F 56.8 °F 61% 30.01 in 10.0 mi NW 5.8 mph - N/A   Clear
1:51 PM 75.9 °F 54.0 °F 46% 29.97 in 10.0 mi Variable 3.5 mph - N/A   Clear
3:51 PM 77.0 °F 52.0 °F 42% 29.93 in 10.0 mi Variable 4.6 mph - N/A   Clear
4:51 PM 75.9 °F 54.9 °F 48% 29.93 in 10.0 mi South 3.5 mph - N/A   Clear
5:51 PM 70.0 °F 59.9 °F 70% 29.93 in 10.0 mi Calm Calm - N/A   Clear
6:51 PM 64.9 °F 59.9 °F 84% 29.94 in 10.0 mi Calm Calm - N/A   Clear
7:51 PM 63.0 °F 59.0 °F 87% 29.94 in 10.0 mi Calm Calm - N/A   Clear
8:51 PM 61.9 °F 57.9 °F 87% 29.94 in 10.0 mi Calm Calm - N/A   Clear
9:51 PM 61.0 °F 57.9 °F 90% 29.94 in 10.0 mi Calm Calm - N/A   Clear
10:51 PM 61.0 °F 57.9 °F 90% 29.93 in 10.0 mi ESE 3.5 mph - N/A   Clear
11:51 PM 59.0 °F 55.9 °F 90% 29.92 in 10.0 mi Calm Calm - N/A   Clear